Midland, MI

3:40 AM EDT on March 30, 2017 (GMT -0400)
Barstow

Weather History for KIKW - November, 2013

Change the Weather History Date:

Thursday, November 28, 2013

  Actual Average (KMBS) Record (KMBS)
Temperature  
Mean Temperature 18 °F -  
Max Temperature 24 °F 39 °F 64 °F (2006)
Min Temperature 13 °F 28 °F 15 °F (2013)
Degree Days  
Heating Degree Days 46    
Moisture  
Dew Point 18 °F    
Average Humidity 90    
Maximum Humidity 99    
Minimum Humidity 77    
Precipitation  
Precipitation 0.00 in - - ()
Sea Level Pressure  
Sea Level Pressure 30.27 in    
Wind  
Wind Speed 2 mph (ESE)    
Max Wind Speed 9 mph    
Max Gust Speed -    
Visibility 6 miles    
Events Snow    
Averages and records for this station are not official NWS values.
T = Trace of Precipitation, MM = Missing Value Source: NWS Daily Summary

Daily Weather History Graph

Daily Weather History Graph

Search for Another Location

Airport or City:

Trip Planner

Search our weather history database for the weather conditions in past years. The results will help you decide how hot, cold, wet, or windy it might be!

Date:

Astronomy

Nov. 28, 2013 Rise Set
Actual Time 7:47 AM EST 5:02 PM EST
Civil Twilight 7:15 AM EST 5:34 PM EST
Nautical Twilight 6:39 AM EST 6:10 PM EST
Astronomical Twilight 6:05 AM EST 6:44 PM EST
Moon 2:40 AM EST (11/28) 2:18 PM EST (11/28)
Length of Visible Light 10h 18m
Length of Day
9h 14m
Waning Crescent, 22% of the Moon is Illuminated
Nov 28
Waning Crescent
Dec 2
New
Dec 9
First Quarter
Dec 17
Full
Dec 25
Last Quarter

Hourly Weather History & Observations

Time (EST) Temp. Windchill Dew Point Humidity Pressure Visibility Wind Dir Wind Speed Gust Speed Precip Events Conditions
12:13 AM 20.1 °F 13.6 °F 13.8 °F 77% 30.18 in 10.0 mi WNW 4.6 mph - N/A   Mostly Cloudy
12:33 AM 19.0 °F 13.9 °F 13.3 °F 78% 30.18 in 10.0 mi West 3.5 mph - N/A   Scattered Clouds
12:53 AM 18.5 °F 13.3 °F 13.1 °F 79% 30.18 in 10.0 mi West 3.5 mph - N/A   Clear
1:13 AM 18.1 °F - 13.5 °F 82% 30.19 in 10.0 mi Calm Calm - N/A   Clear
1:33 AM 17.4 °F - 13.1 °F 83% 30.19 in 10.0 mi Calm Calm - N/A   Clear
1:53 AM 15.4 °F - 12.0 °F 86% 30.19 in 10.0 mi Calm Calm - N/A   Clear
2:13 AM 14.0 °F - 11.3 °F 89% 30.20 in 10.0 mi Calm Calm - N/A   Clear
2:33 AM 13.8 °F - 11.3 °F 90% 30.20 in 10.0 mi Calm Calm - N/A   Clear
2:53 AM 13.8 °F - 11.5 °F 90% 30.21 in 10.0 mi Calm Calm - N/A   Clear
3:12 AM 14.5 °F - 12.2 °F 90% 30.21 in 10.0 mi Calm Calm - N/A   Clear
3:33 AM 14.4 °F - 12.0 °F 90% 30.21 in 10.0 mi Calm Calm - N/A   Clear
3:53 AM 14.2 °F - 11.7 °F 90% 30.22 in 10.0 mi Calm Calm - N/A   Clear
4:12 AM 14.2 °F - 12.2 °F 92% 30.22 in 10.0 mi Calm Calm - N/A   Scattered Clouds
4:33 AM 15.8 °F - 13.6 °F 91% 30.22 in 10.0 mi Calm Calm - N/A   Scattered Clouds
4:53 AM 16.5 °F - 14.0 °F 90% 30.22 in 10.0 mi Calm Calm - N/A   Mostly Cloudy
5:13 AM 17.2 °F - 14.5 °F 89% 30.23 in 10.0 mi Calm Calm - N/A   Overcast
5:33 AM 17.6 °F - 14.9 °F 89% 30.23 in 10.0 mi Calm Calm - N/A   Overcast
5:53 AM 18.5 °F - 15.8 °F 89% 30.24 in 10.0 mi Calm Calm - N/A   Overcast
6:13 AM 18.7 °F - 15.6 °F 88% 30.25 in 10.0 mi Calm Calm - N/A   Overcast
6:33 AM 19.2 °F - 16.3 °F 89% 30.25 in 10.0 mi Calm Calm - N/A   Overcast
6:53 AM 19.4 °F - 16.5 °F 89% 30.26 in 10.0 mi Calm Calm - N/A   Overcast
7:13 AM 19.9 °F - 16.7 °F 87% 30.26 in 10.0 mi Calm Calm - N/A   Overcast
7:33 AM 20.3 °F - 17.2 °F 88% 30.27 in 4.0 mi Calm Calm - N/A Snow Light Snow
7:53 AM 20.7 °F - 17.6 °F 88% 30.27 in 5.0 mi Calm Calm - N/A Snow Light Snow
8:13 AM 21.2 °F 16.4 °F 17.8 °F 87% 30.27 in 4.0 mi South 3.5 mph - N/A Snow Light Snow
8:32 AM 21.2 °F 14.9 °F 18.1 °F 88% 30.27 in 5.0 mi SSE 4.6 mph - N/A Snow Light Snow
8:53 AM 21.7 °F 17.0 °F 18.7 °F 88% 30.27 in 7.0 mi SE 3.5 mph - N/A Snow Light Snow
9:13 AM 22.1 °F 17.4 °F 18.9 °F 87% 30.28 in 5.0 mi SE 3.5 mph - N/A Snow Light Snow
9:32 AM 22.1 °F 14.7 °F 18.9 °F 87% 30.27 in 3.0 mi SE 5.8 mph - N/A Snow Light Snow
9:53 AM 22.3 °F 13.9 °F 19.0 °F 87% 30.27 in 3.0 mi ESE 6.9 mph - N/A Snow Light Snow
10:13 AM 22.3 °F 13.9 °F 18.9 °F 87% 30.27 in 2.5 mi ESE 6.9 mph - N/A Snow Light Snow
10:33 AM 22.5 °F 15.1 °F 19.0 °F 87% 30.27 in 2.0 mi SE 5.8 mph - N/A Snow Light Snow
10:53 AM 22.6 °F 12.6 °F 19.0 °F 86% 30.27 in 2.0 mi ESE 9.2 mph - N/A Snow Light Snow
11:13 AM 23.0 °F 13.9 °F 19.4 °F 86% 30.26 in 1.8 mi ESE 8.1 mph - N/A Snow Light Snow
11:33 AM 23.0 °F 14.7 °F 19.6 °F 87% 30.25 in 1.2 mi ESE 6.9 mph - N/A Snow Light Snow
11:53 AM 22.8 °F 14.5 °F 19.4 °F 87% 30.25 in 1.5 mi East 6.9 mph - N/A Snow Light Snow
12:13 PM 23.0 °F 15.8 °F 19.8 °F 87% 30.24 in 1.8 mi ESE 5.8 mph - N/A Snow Light Snow
12:33 PM 23.0 °F 15.8 °F 19.4 °F 86% 30.24 in 2.5 mi ESE 5.8 mph - N/A Snow Light Snow
12:53 PM 23.4 °F 15.2 °F 19.8 °F 86% 30.24 in 5.0 mi ESE 6.9 mph - N/A Snow Light Snow
1:13 PM 23.5 °F 17.6 °F 19.9 °F 86% 30.23 in 10.0 mi ESE 4.6 mph - N/A   Overcast
1:33 PM 23.9 °F 16.8 °F 20.1 °F 85% 30.23 in 5.0 mi ESE 5.8 mph - N/A Snow Light Snow
1:53 PM 23.9 °F 18.0 °F 20.1 °F 85% 30.22 in 7.0 mi ESE 4.6 mph - N/A Snow Light Snow
2:13 PM 23.9 °F 18.0 °F 20.1 °F 85% 30.22 in 10.0 mi SE 4.6 mph - N/A   Overcast
2:33 PM 24.3 °F 18.4 °F 20.3 °F 85% 30.22 in 5.0 mi ESE 4.6 mph - N/A Snow Light Snow
2:53 PM 24.6 °F 18.8 °F 21.0 °F 86% 30.22 in 2.5 mi East 4.6 mph - N/A Snow Light Snow
3:13 PM 24.6 °F 18.8 °F 21.2 °F 87% 30.23 in 1.8 mi East 4.6 mph - N/A Snow Light Snow
3:33 PM 24.8 °F 19.1 °F 21.9 °F 89% 30.24 in 1.5 mi ESE 4.6 mph - N/A Snow Light Snow
3:53 PM 24.8 °F 20.5 °F 22.1 °F 89% 30.25 in 1.5 mi East 3.5 mph - N/A Snow Light Snow
4:13 PM 24.6 °F 20.3 °F 22.3 °F 91% 30.25 in 1.0 mi East 3.5 mph - N/A Snow Light Snow
4:33 PM 24.8 °F 19.1 °F 22.6 °F 91% 30.26 in 0.8 mi East 4.6 mph - N/A Snow Light Snow
4:53 PM 24.6 °F 18.8 °F 22.6 °F 92% 30.27 in 1.0 mi East 4.6 mph - N/A Snow Light Snow
5:13 PM 24.4 °F - 22.6 °F 93% 30.29 in 2.0 mi Calm Calm - N/A Snow Light Snow
5:33 PM 24.3 °F - 22.8 °F 94% 30.29 in 3.0 mi Calm Calm - N/A Snow Light Snow
5:53 PM 23.9 °F - 23.0 °F 96% 30.31 in 3.0 mi Calm Calm - N/A Snow Light Snow
6:13 PM 24.1 °F - 23.0 °F 96% 30.32 in 4.0 mi Calm Calm - N/A Snow Light Snow
6:33 PM 23.9 °F 19.5 °F 23.0 °F 96% 30.32 in 4.0 mi ESE 3.5 mph - N/A Snow Light Snow
6:53 PM 23.9 °F - 23.0 °F 96% 30.33 in 5.0 mi Calm Calm - N/A Snow Light Snow
7:13 PM 23.7 °F - 23.0 °F 97% 30.33 in 5.0 mi Calm Calm - N/A Snow Light Snow
7:33 PM 23.9 °F - 23.0 °F 96% 30.34 in 7.0 mi Calm Calm - N/A Snow Light Snow
7:53 PM 23.9 °F - 23.0 °F 96% 30.34 in 5.0 mi Calm Calm - N/A Snow Light Snow
8:13 PM 23.5 °F - 22.5 °F 96% 30.35 in 7.0 mi Calm Calm - N/A   Overcast
8:33 PM 22.8 °F - 21.9 °F 96% 30.35 in 7.0 mi Calm Calm - N/A   Overcast
8:53 PM 23.0 °F - 22.3 °F 97% 30.36 in 7.0 mi Calm Calm - N/A   Overcast
9:13 PM 21.6 °F - 20.7 °F 96% 30.36 in 10.0 mi Calm Calm - N/A   Overcast
9:33 PM 21.2 °F - 20.8 °F 99% 30.37 in 10.0 mi Calm Calm - N/A   Overcast
9:53 PM 20.5 °F - 19.9 °F 98% 30.37 in 7.0 mi Calm Calm - N/A   Mostly Cloudy
10:13 PM 18.5 °F - 17.6 °F 96% 30.38 in 7.0 mi Calm Calm - N/A   Scattered Clouds
10:33 PM 18.1 °F - 17.2 °F 96% 30.39 in 4.0 mi Calm Calm - N/A Snow Light Snow
10:53 PM 17.6 °F - 16.7 °F 96% 30.39 in 7.0 mi Calm Calm - N/A   Overcast
11:13 PM 17.2 °F - 15.8 °F 94% 30.40 in 7.0 mi Calm Calm - N/A Snow Light Snow
11:33 PM 17.8 °F - 16.5 °F 95% 30.41 in 10.0 mi Calm Calm - N/A   Overcast
11:53 PM 18.3 °F - 17.2 °F 96% 30.42 in 10.0 mi Calm Calm - N/A   Overcast